Погода в Мотыжине

Украина / Киевская область     50°22′54″N   29°56′12″E
темп.,
°C
ветер,
м/с
пор.,
м/с
влажн.,
%
обл.,
%
осадки,
мм/ч
давл.,
гПа
погр.,
м
21 апреля, ср
ср2100:00+4ссз3693100 0.0 1010118
03:00+4сз3593100 0.0 1010127
06:00+5зсз3690100 0.0 1010211
09:00+8зсз4671100 0.3 1011764
12:00+10зсз466199 0.5 10121225
15:00+11з6761100 1.3 10121450
18:00+12зюз4662100 0.3 10121318
21:00+8юз398569 0.3 1014164
22 апреля, чт
чт2200:00+6юз499066 0.0 1014164
03:00+6юз4118945 0.1 1014232
06:00+7юз2391100 0.3 101562
09:00+11ююз597265 0.3 1015394
12:00+15юз695546 0.3 10151611
15:00+15юз595999 1.5 10151977
18:00+14юз496391 0.5 1014797
21:00+10ююз497812 0.7 1015149
23 апреля, пт
пт2300:00+8зюз2395100 0.5 101657
03:00+8зюз2396100 0.7 101599
06:00+6ссз5789100 0.1 1015467
09:00+4ссз3792100 0.6 1017569
12:00+4зсз2595100 1.8 1017513
15:00+6з2482100 5.0 1017676
18:00+8зсз3663100 0.3 10151249
21:00+5з348493 0.4 101778
24 апреля, сб
сб2400:00+4зсз368599 0.6 1016118
03:00+1з49884 0.6 1017198
06:000з49895 0.0 1017206
09:00+5з69738 0.0 1017784
12:00+8зсз795398 0.6 10171868
15:00+8зсз7104599 0.6 10172360
18:00+7зсз685999 0.1 10171525
21:00+3з38775 0.3 1018184
25 апреля, вс
вс2500:00+2зюз4108087 0.0 1018269
03:000зюз498438 0.0 1018201
06:00+2з599180 0.0 1018454
09:00+3з6881100 0.0 1018722
12:00+7з794488 0.1 10172153
15:00+9з6937100 0.1 10162613
18:00+7зсз685423 0.4 10171607
21:00+3зюз377240 0.4 1017137